Regional Weather Roundup
Issued by NWS

Home | Current Version | Previous Version | Text Only | Print | Product List | Glossary Off
Versions: 1 2 3 4 5 6 7 8 9 10 11 12 13 14 15 16 17 18 19 20 21 22 23 24 25 26 27 28 29 30 31 32 33 34 35 36 37 38 39 40 41 42 43 44 45 46 47 48 49 50

000
ASUS43 KOAX 231010
RWRNE

WEATHER ROUNDUP FOR NEBRASKA
NATIONAL WEATHER SERVICE OMAHA NE
400 AM CST MON JAN 23 2017

NOTES: SATELLITE DATA IS BEING USED TO AUGMENT CLOUD COVER ABOVE
       12000 FEET.
       "FAIR" INDICATES FEW OR NO CLOUDS BELOW 12,000 FEET WITH NO
       SIGNIFICANT WEATHER AND/OR OBSTRUCTIONS TO VISIBILITY.

  * THESE STATIONS DO NOT REPORT WEATHER SUCH AS RAIN...SNOW OR FOG.

NEZ001>004-019>022-054>056-231100-
NEBRASKA PANHANDLE

CITY           SKY/WX    TMP DP  RH WIND       PRES   REMARKS
SCOTTSBLUFF    CLOUDY    25  21  85 CALM      29.74S
ALLIANCE       PTCLDY    19  16  88 S5        29.73F WCI  12
CHADRON        CLEAR     19  16  88 CALM      29.71F
KIMBALL        FLURRIES  33  28  80 SE8       29.72S WCI  26
SIDNEY         CLOUDY    30  22  72 SW9       29.75S WCI  22
$$

NEZ057>060-069>072-079>082-231100-
SOUTHWEST NEBRASKA

CITY           SKY/WX    TMP DP  RH WIND       PRES   REMARKS
NORTH PLATTE   PTCLDY    21  19  92 CALM      29.82F
IMPERIAL       MOCLDY    31  24  75 S7        29.79F WCI  24
LEXINGTON      PTCLDY    27  25  90 CALM      29.84F
MCCOOK         CLEAR     23  22  96 CALM      29.83S
OGALLALA       CLOUDY    23  21  93 CALM      29.77F
$$

NEZ005>010-023>029-035>040-094-231100-
NORTH CENTRAL NEBRASKA

CITY           SKY/WX    TMP DP  RH WIND       PRES   REMARKS
VALENTINE      CLEAR     17  14  88 NE5       29.80F WCI  10
AINSWORTH      CLOUDY    17  17  97 SE3       29.81F
BROKEN BOW     PTCLDY    26  24  92 CALM      29.83F
O`NEILL        FOG       26  26  99 CALM      29.85F VSB 3/4
ORD            CLEAR     20  16  84 CALM      29.85F
THEDFORD       MOCLDY    22  21  96 CALM      29.80F
$$

NEZ041-046>049-061>064-073>077-083>087-231100-
SOUTH CENTRAL NEBRASKA

CITY           SKY/WX    TMP DP  RH WIND       PRES   REMARKS
GRAND ISLAND   CLEAR     24  23  96 CALM      29.88F
AURORA         CLEAR     25  25  99 CALM      29.88F
HASTINGS       CLOUDY    25  23  92 CALM      29.87F
HEBRON         PTCLDY    24  24 100 CALM      29.90S
HOLDREGE       PTCLDY    29  26  88 CALM      29.84F
KEARNEY *      PTCLDY    27  21  80 CALM      29.85F
YORK           CLEAR     25  25 100 E7        29.89F WCI  17
$$

NEZ011>018-030>034-042>045-231100-
NORTHEAST NEBRASKA

CITY           SKY/WX    TMP DP  RH WIND       PRES   REMARKS
NORFOLK        CLOUDY    29  25  85 NW7       29.87F WCI  22
ALBION         CLOUDY    27  24  89 NE5       29.87F FOG     WCI  21
BLAIR          CLOUDY    32  28  86 N8        29.90S WCI  25
FREMONT        CLOUDY    32  30  92 CALM      29.90F
TEKAMAH        CLOUDY    33  27  78 N9        29.91R WCI  25
WAYNE          CLOUDY    32  28  88 N8        29.88F WCI  24
$$

NEZ050>053-065>068-078-088>093-231100-
SOUTHEAST NEBRASKA

CITY           SKY/WX    TMP DP  RH WIND       PRES   REMARKS
LINCOLN        CLOUDY    27  26  96 N5        29.94S WCI  22
OMAHA EPPLEY   CLOUDY    32  27  81 NW8       29.92R WCI  25
BEATRICE       PTCLDY    23  22  96 CALM      29.91F
FALLS CITY     MOCLDY    25  24  96 N3        29.91S
NEBRASKA CITY  CLOUDY    30  29  96 N7        29.92S WCI  24
PLATTSMOUTH    CLOUDY    31  27  84 NW6       29.91F WCI  25
$$

NEZ044-045-051>053-067-231100-
OMAHA AREA

CITY           SKY/WX    TMP DP  RH WIND       PRES   REMARKS
OMAHA EPPLEY   CLOUDY    32  27  81 NW8       29.92R WCI  25
BLAIR          CLOUDY    32  28  86 N8        29.90S WCI  25
FREMONT        CLOUDY    32  30  92 CALM      29.90F
MILLARD        CLOUDY    34  29  84 NW6       29.92F WCI  29
OFFUTT AFB     CLOUDY    32  32  99 NW9       29.91F WCI  24
PLATTSMOUTH    CLOUDY    31  27  84 NW6       29.91F WCI  25
WAHOO          CLOUDY    32  29  89 N6        29.91F WCI  26
$$




USA.gov is the U.S. government's official web portal to all federal, state and local government web resources and services.